Location: De Greiden
(52.9496°N, 5.9137°E)
Time: 01:33:04
(UTC+00:00)

COSMOS 2455 - Pass Details

Date: 24 January 2021
Orbit: 901 x 908 km, 67.1° (Epoch: 26 February)

Event Time Altitude Azimuth Distance (km) Brightness Sun altitude
Rises 19:45:22 0° 269° (W) 3,537 7.0 -32.5°
Reaches altitude 10° 19:48:18 10° 281° (W) 2,598 6.1 -33.0°
Maximum altitude 19:53:21 27° 338° (NNW) 1,682 4.5 -33.7°
Enters shadow 19:54:15 26° 353° (N) 1,720 4.4 -33.8°
